Location: Buckenweiler
(49.0667°N, 10.2500°E)
Time: 08:39:51
(UTC+00:00)

Cosmos 1484 Rocket - Pass Details

Date: 18 January 2026
Orbit: 439 x 466 km, 97.6° (Epoch: 15 February)

Event Time Altitude Azimuth Distance (km) Brightness Sun altitude
Rises 05:06:14 0° 17° (NNE) 2,459 6.2 -19.1°
Reaches altitude 10° 05:08:18 10° 21° (NNE) 1,586 5.3 -18.7°
Maximum altitude 05:11:39 56° 101° (E) 545 3.1 -18.2°
Drops below altitude 10° 05:15:00 10° 181° (S) 1,589 5.3 -17.7°
Sets 05:17:03 0° 185° (S) 2,462 6.2 -17.3°
